Location: Edinburgh
(55.9500°N, 3.1600°W)
Time: 01:10:54
(UTC+01:00)

AO-91 - Pass Details

Date: 05 June 2024
Orbit: 442 x 732 km, 97.6° (Epoch: 21 June)

Event Time Altitude Azimuth Distance (km) Brightness Sun altitude
Rises 01:17:14 0° 5° (N) 3,009 ? -11.5°
Reaches altitude 10° 01:20:39 10° 337° (NNW) 2,147 ? -11.4°
Maximum altitude 01:22:40 13° 312° (NW) 1,990 ? -11.4°
Drops below altitude 10° 01:24:43 10° 287° (WNW) 2,195 ? -11.4°
Sets 01:28:18 0° 260° (W) 3,143 ? -11.4°
